Wind_Speed
4 3 3 3 3 3 4 4 5 5 5 5 5 5 5 4 4 4 4 5 5 5 5 5 4 5 4 5 5 7 8 8 9 8 8 8 8 8 8 8 8 7 8
5 5 5 5 5 5 5 6 6 7 7 6 6 6 6 5 5 5 6 6 6 5 5 5 5 5 4 4 5 6 7 8 9 8 8 8 8 8 8 8 8 8 8
5 5 6 6 7 7 7 7 8 8 8 7 7 7 7 7 7 6 6 7 7 6 7 6 5 5 5 4 5 6 8 9 9 9 9 9 10 9 9 9 9 9 9
5 5 6 7 7 8 8 9 9 9 8 8 8 8 8 8 7 7 7 7 7 7 7 7 6 6 5 5 5 6 7 8 10 10 10 10 11 10 10 10 10 10 10
6 6 7 7 8 8 10 10 10 10 9 9 9 9 9 9 9 8 7 7 7 7 7 7 7 6 5 5 6 6 7 8 9 10 11 11 12 12 11 11 11 11 10
7 7 8 8 8 9 10 10 10 11 10 9 10 10 10 10 9 9 8 8 8 8 8 7 7 7 6 6 7 7 8 8 9 11 12 13 13 13 13 12 12 12 12
7 8 8 8 8 9 10 10 10 10 10 9 9 9 9 10 10 10 9 9 8 8 8 8 8 8 8 8 8 8 8 8 10 11 12 13 14 14 14 13 13 13 13
7 8 8 8 8 8 8 9 9 8 8 8 8 9 9 10 11 11 11 10 9 9 8 8 8 9 9 9 9 9 9 10 10 12 13 14 15 15 15 15 14 14 14
7 8 7 7 7 7 7 8 9 9 9 9 9 8 9 9 10 11 11 11 10 9 8 8 9 9 9 9 10 10 10 11 11 12 14 14 15 16 16 16 15 15 15
7 8 8 7 7 8 8 9 9 10 10 10 9 10 10 10 10 10 11 11 10 9 9 9 9 9 10 10 11 11 11 11 12 12 13 14 14 15 16 16 16 16 15
7 8 8 8 8 8 8 8 9 10 10 10 10 11 11 11 10 10 10 10 10 10 10 10 10 10 10 11 11 11 12 13 12 12 13 14 15 16 16 16 16 16 16
8 8 8 9 9 8 9 9 9 10 11 11 11 11 11 12 11 11 10 11 11 11 11 11 11 11 11 11 12 12 12 13 13 13 13 14 15 15 16 16 16 17 17
9 9 9 9 10 9 10 10 10 10 11 11 12 12 11 11 11 12 12 12 12 12 11 11 12 12 12 13 13 13 14 14 14 13 13 13 14 15 16 17 17 17 18
9 9 9 9 10 9 10 10 10 10 10 10 11 11 12 12 12 12 12 13 12 12 12 12 12 13 13 14 14 14 14 14 14 14 14 14 14 14 15 16 16 16 16
10 10 10 10 10 10 10 10 10 10 9 10 10 10 11 11 12 12 13 13 13 13 13 13 13 14 14 13 13 14 14 15 15 15 15 15 15 14 14 14 15 15 15
10 10 10 10 9 9 9 10 10 10 9 10 10 11 12 12 12 12 12 13 14 13 13 13 14 14 14 14 14 14 15 15 15 14 14 14 14 15 14 14 15 15 15
10 10 10 10 10 10 10 9 10 10 11 11 11 12 11 11 12 12 12 13 13 14 14 14 14 15 15 15 15 15 15 15 15 15 15 15 15 15 15 14 14 15 15
10 10 10 10 10 10 10 10 10 10 11 11 11 11 11 11 11 11 11 12 13 14 14 14 14 14 14 14 14 14 15 15 15 15 16 16 16 16 16 16 16 16 16
10 11 11 10 11 11 11 10 10 11 11 11 11 11 11 11 11 11 11 12 13 13 13 13 14 14 14 14 14 14 14 14 15 15 16 17 17 17 17 17 17 17 17
11 11 11 11 11 11 11 11 11 10 10 10 10 11 11 11 11 11 12 12 13 12 12 13 14 14 14 15 15 15 15 15 16 16 16 17 17 18 18 18 18 18 17
11 11 10 11 11 11 11 11 11 11 10 10 11 11 11 11 12 12 13 13 12 13 13 14 14 15 15 16 16 16 16 16 16 17 17 17 17 18 19 19 19 18 18
12 12 11 11 12 12 12 12 12 12 12 12 12 13 13 13 13 13 13 13 14 14 14 15 15 16 16 16 16 16 17 17 17 17 17 17 18 18 18 19 19 18 18
12 13 12 12 12 12 13 13 13 13 12 12 13 14 14 14 14 14 14 14 15 15 16 16 16 16 16 17 17 17 17 17 17 18 18 18 19 19 19 19 20 19 19
12 13 13 13 13 14 14 14 14 14 14 14 14 14 15 15 15 14 14 15 16 16 16 16 16 17 18 18 18 18 18 18 18 18 19 20 20 20 21 20 21 21 20
13 13 14 15 15 15 15 15 15 15 15 16 15 15 15 15 15 15 16 16 17 17 17 18 18 19 19 19 19 19 19 19 19 19 19 20 20 20 20 21 22 22 22
14 14 15 15 15 15 15 15 15 15 15 16 16 16 16 16 16 17 17 18 18 18 18 19 19 20 20 20 20 20 20 21 20 20 19 20 20 20 21 21 21 22 23
Wind_Direction
226 239 242 244 245 252 254 252 259 265 264 261 257 247 246 243 247 247 247 249 245 247 255 261 265 264 268 264 241 226 220 222 226 229 228 229 234 237 235 236 239 244 246
241 248 253 250 253 260 260 257 261 265 266 265 257 248 246 246 246 250 248 248 248 251 260 265 270 269 269 261 240 227 224 227 230 234 236 238 241 242 242 244 244 248 247
245 255 262 258 256 260 261 261 260 259 262 264 258 254 253 256 251 245 246 248 250 254 261 266 273 271 268 249 233 231 231 235 239 241 241 244 246 246 248 250 251 253 251
248 259 263 264 263 259 258 258 260 259 261 261 257 256 256 255 255 253 248 248 255 258 260 266 267 270 267 256 248 243 241 245 243 247 248 248 250 250 250 252 255 257 253
254 260 262 264 267 265 260 256 255 256 257 257 255 255 255 252 252 253 252 250 253 256 260 262 261 264 263 262 258 252 248 249 249 250 251 251 251 252 251 251 254 257 254
264 263 265 268 270 269 264 255 251 250 251 252 254 255 256 254 249 250 251 254 256 258 260 259 260 260 258 259 256 253 255 253 254 255 254 255 254 254 254 253 253 253 253
266 265 268 271 272 272 265 254 250 247 247 248 254 256 255 255 254 254 254 256 258 259 260 259 261 260 259 259 257 257 260 263 261 261 259 258 257 254 253 252 251 252 253
270 271 270 268 271 270 265 250 244 244 246 248 254 257 255 255 254 256 261 261 260 258 259 261 262 264 264 264 264 267 267 266 268 264 261 260 260 257 254 253 253 254 254
272 272 273 273 273 269 257 245 245 247 251 255 257 259 258 258 256 256 260 259 258 257 260 263 266 269 268 268 268 269 271 270 270 269 266 264 261 257 255 255 255 255 256
273 273 268 273 278 273 259 252 253 250 253 257 259 258 258 257 255 257 256 257 258 259 261 266 268 269 271 272 272 271 273 275 272 272 270 267 264 259 257 257 256 256 256
273 273 268 269 270 269 264 260 258 257 258 258 260 260 262 260 257 256 256 259 261 263 265 267 268 270 272 275 278 278 276 276 276 274 271 268 265 260 256 257 258 258 259
270 272 273 270 266 266 262 262 262 260 260 261 260 260 262 263 261 257 257 259 263 266 267 266 266 269 274 278 281 282 281 280 279 277 276 272 267 263 260 258 257 258 259
268 269 270 270 269 268 266 268 269 265 267 266 264 261 261 263 263 260 259 261 261 263 266 268 270 273 276 279 282 281 281 280 281 279 277 276 273 268 263 259 258 259 260
269 266 266 269 269 269 268 268 271 269 268 268 265 264 264 265 265 264 265 267 265 264 265 267 270 272 275 278 280 279 278 279 280 280 278 276 275 275 268 264 261 261 262
268 267 270 269 270 269 269 272 273 271 270 270 272 272 271 271 269 268 267 267 266 266 266 267 271 273 276 279 280 279 277 277 279 278 275 273 273 274 271 267 264 262 262
264 266 269 271 272 272 272 272 274 273 272 271 270 269 271 273 273 271 267 265 265 265 267 269 272 275 277 278 279 280 279 278 277 277 274 273 272 272 271 268 264 263 263
264 266 269 272 273 273 273 272 271 273 272 272 272 270 273 274 275 271 268 267 267 267 268 270 273 276 277 278 279 280 281 277 277 277 274 271 270 270 270 268 263 262 263
267 268 269 271 271 269 270 272 274 275 277 278 277 276 275 276 276 274 271 270 269 269 270 272 273 273 275 278 280 280 281 278 277 277 275 271 269 268 267 267 266 262 262
270 271 270 271 268 267 269 270 273 277 281 281 281 281 279 278 276 273 271 270 270 270 270 272 274 272 274 277 279 280 281 282 280 277 275 272 270 268 266 265 266 266 265
272 273 271 269 266 266 265 268 270 274 279 281 285 286 279 277 278 277 273 272 272 271 271 273 275 275 275 277 279 280 281 282 281 278 276 273 271 269 267 266 267 268 267
270 272 272 269 268 269 268 269 270 274 278 283 284 284 283 280 275 275 273 271 273 273 274 274 275 276 277 278 279 281 282 283 283 281 278 275 272 270 269 267 268 268 268
270 274 273 271 272 272 272 274 272 275 278 281 282 283 283 281 277 275 273 271 272 274 276 276 277 277 277 278 279 281 284 284 284 282 280 277 274 272 270 267 267 267 266
273 275 274 273 273 274 274 277 276 276 277 279 281 282 283 281 280 277 274 273 273 272 274 274 275 276 277 278 279 281 283 283 283 283 281 278 276 274 273 270 267 268 267
275 274 272 272 271 273 273 275 273 273 275 275 277 280 281 281 281 279 276 275 273 272 271 271 273 275 277 278 279 279 281 283 283 283 281 279 277 276 274 271 269 268 268
273 271 271 273 271 271 272 275 275 273 272 272 273 277 279 281 281 280 280 280 279 277 275 274 273 274 275 277 278 279 281 282 283 282 279 278 277 277 276 273 270 269 268
273 272 272 271 270 270 269 273 273 271 270 271 273 274 276 279 279 280 281 281 282 282 280 279 278 278 278 279 280 281 281 283 283 281 278 275 275 276 277 276 274 271 269
Height
5873 5873 5873 5873 5873 5873 5873 5873 5873 5873 5873 5873 5873 5873 5873 5873 5874 5873 5873 5873 5872 5872 5872 5871 5870 5868 5865 5861 5858 5859 5864 5868 5870 5872 5872 5873 5873 5874 5874 5875 5875 5875 5874
5872 5872 5872 5872 5872 5872 5872 5872 5872 5872 5872 5872 5872 5872 5873 5873 5873 5873 5872 5872 5872 5871 5871 5870 5869 5868 5865 5861 5859 5860 5864 5867 5869 5871 5871 5872 5872 5873 5873 5873 5873 5873 5873
5870 5871 5871 5871 5871 5871 5871 5871 5871 5871 5871 5871 5871 5871 5872 5872 5872 5871 5871 5871 5871 5870 5870 5870 5869 5867 5865 5863 5862 5863 5864 5866 5868 5869 5870 5871 5871 5871 5871 5872 5872 5872 5872
5869 5869 5869 5869 5869 5869 5869 5869 5869 5870 5870 5870 5870 5870 5870 5870 5870 5870 5870 5870 5870 5869 5869 5869 5868 5867 5866 5864 5864 5864 5865 5866 5867 5868 5869 5869 5870 5870 5870 5870 5870 5870 5871
5867 5868 5868 5868 5868 5867 5867 5867 5867 5868 5868 5868 5868 5868 5869 5869 5869 5869 5869 5869 5868 5868 5868 5868 5867 5867 5866 5865 5865 5864 5865 5865 5866 5867 5867 5868 5868 5868 5869 5869 5869 5869 5869
5866 5866 5866 5866 5865 5865 5865 5865 5865 5866 5866 5866 5867 5867 5867 5867 5867 5868 5868 5867 5867 5867 5867 5866 5866 5866 5865 5865 5864 5864 5864 5864 5865 5865 5865 5866 5866 5867 5867 5867 5867 5867 5867
5864 5864 5864 5864 5863 5862 5861 5861 5863 5863 5864 5865 5865 5865 5866 5866 5866 5866 5866 5866 5866 5866 5866 5865 5865 5865 5864 5864 5863 5863 5863 5863 5863 5863 5863 5864 5864 5864 5864 5865 5865 5865 5865
5863 5862 5862 5862 5861 5859 5858 5858 5860 5862 5863 5863 5863 5864 5864 5864 5864 5864 5864 5864 5864 5864 5864 5864 5863 5863 5863 5862 5862 5862 5861 5861 5861 5861 5861 5861 5861 5861 5862 5862 5863 5863 5863
5861 5861 5860 5860 5860 5858 5857 5858 5859 5860 5861 5861 5862 5862 5862 5862 5862 5862 5862 5862 5862 5862 5862 5862 5862 5861 5861 5861 5860 5860 5860 5859 5859 5859 5859 5858 5858 5858 5859 5860 5860 5860 5861
5859 5859 5859 5858 5858 5858 5857 5857 5858 5858 5859 5860 5860 5860 5860 5860 5860 5860 5860 5860 5860 5860 5860 5860 5860 5859 5859 5859 5858 5858 5858 5857 5857 5856 5856 5856 5855 5856 5856 5857 5857 5857 5858
5858 5857 5857 5857 5857 5857 5857 5857 5857 5857 5857 5858 5858 5858 5858 5858 5858 5858 5858 5858 5858 5858 5858 5858 5858 5857 5857 5857 5856 5856 5855 5855 5854 5854 5853 5853 5853 5853 5853 5854 5854 5854 5855
5856 5856 5855 5855 5855 5855 5855 5855 5855 5855 5856 5855 5855 5855 5856 5855 5855 5855 5856 5856 5856 5856 5855 5855 5855 5855 5855 5854 5854 5854 5853 5852 5851 5851 5851 5850 5850 5850 5850 5851 5851 5851 5852
5854 5854 5854 5853 5853 5854 5853 5853 5853 5853 5853 5853 5853 5853 5853 5853 5853 5853 5853 5853 5853 5853 5853 5852 5852 5852 5852 5852 5851 5851 5850 5849 5849 5848 5848 5847 5847 5847 5847 5847 5847 5848 5848
5852 5852 5852 5851 5851 5851 5851 5851 5851 5851 5851 5850 5850 5850 5850 5850 5850 5850 5850 5850 5850 5850 5850 5850 5850 5849 5849 5849 5848 5847 5847 5846 5846 5845 5844 5844 5844 5843 5843 5843 5844 5844 5844
5850 5850 5849 5849 5849 5849 5849 5849 5849 5848 5848 5848 5848 5847 5847 5847 5847 5847 5847 5847 5847 5847 5847 5847 5847 5846 5846 5846 5845 5844 5843 5843 5843 5842 5841 5841 5840 5840 5840 5840 5840 5840 5840
5847 5847 5847 5847 5847 5847 5846 5846 5846 5846 5846 5845 5845 5845 5844 5844 5844 5844 5844 5844 5844 5844 5844 5844 5843 5843 5843 5842 5842 5841 5840 5840 5839 5839 5838 5837 5837 5837 5837 5837 5837 5837 5837
5844 5845 5844 5844 5844 5844 5844 5844 5843 5843 5843 5842 5842 5841 5841 5840 5840 5840 5840 5840 5840 5840 5840 5840 5840 5840 5839 5839 5838 5838 5837 5836 5836 5835 5835 5834 5834 5834 5833 5833 5833 5833 5833
5841 5842 5842 5842 5842 5841 5841 5841 5841 5840 5840 5839 5839 5838 5838 5837 5837 5836 5836 5836 5837 5837 5837 5837 5836 5836 5836 5835 5835 5834 5833 5833 5832 5832 5831 5830 5830 5830 5830 5830 5830 5830 5830
5839 5839 5839 5839 5838 5838 5838 5838 5838 5837 5837 5837 5836 5835 5835 5834 5833 5833 5833 5833 5833 5833 5833 5833 5833 5833 5832 5832 5831 5831 5830 5829 5829 5828 5827 5827 5826 5826 5826 5826 5826 5826 5826
5835 5836 5836 5835 5835 5835 5835 5835 5835 5835 5834 5834 5833 5833 5832 5831 5831 5830 5830 5830 5830 5830 5829 5829 5829 5829 5829 5828 5828 5827 5826 5826 5825 5824 5824 5823 5822 5822 5822 5822 5822 5822 5822
5832 5832 5832 5832 5832 5832 5832 5832 5832 5831 5831 5831 5830 5830 5829 5828 5828 5827 5827 5826 5826 5826 5826 5826 5825 5825 5825 5824 5824 5823 5822 5822 5821 5820 5819 5819 5818 5818 5818 5818 5818 5817 5817
5829 5828 5828 5829 5828 5829 5829 5829 5829 5828 5828 5827 5827 5827 5826 5825 5824 5824 5823 5823 5822 5822 5822 5822 5821 5821 5821 5820 5820 5819 5818 5818 5816 5815 5815 5814 5814 5814 5813 5813 5813 5813 5813
5825 5825 5825 5825 5825 5825 5825 5825 5825 5825 5825 5824 5823 5823 5822 5821 5821 5820 5819 5819 5819 5818 5818 5818 5817 5817 5816 5816 5815 5815 5814 5813 5812 5811 5810 5810 5809 5809 5809 5808 5808 5808 5808
5821 5821 5821 5821 5821 5822 5822 5821 5821 5821 5821 5820 5820 5819 5819 5818 5817 5816 5816 5815 5815 5814 5814 5813 5813 5812 5812 5811 5811 5810 5809 5808 5808 5807 5805 5805 5804 5804 5803 5803 5803 5803 5803
5817 5817 5817 5817 5818 5818 5818 5817 5817 5817 5816 5816 5816 5815 5815 5814 5813 5812 5812 5811 5810 5810 5809 5809 5808 5808 5807 5806 5806 5805 5804 5803 5802 5801 5801 5800 5799 5798 5798 5798 5797 5797 5798
5813 5813 5813 5813 5813 5813 5813 5813 5813 5812 5812 5812 5811 5811 5810 5809 5808 5808 5807 5806 5806 5805 5804 5804 5803 5803 5802 5801 5800 5799 5798 5798 5797 5796 5795 5794 5794 5793 5792 5792 5792 5792 5792